956  
ASUS41 KBOX 250510  
RWRBOX  
 
REGIONAL WEATHER ROUNDUP  
NATIONAL WEATHER SERVICE TAUNTON MA  
100 AM EDT SUN JUN 25 2017  
 
NOTE: "FAIR" INDICATES FEW OR NO CLOUDS BELOW 12,000 FEET WITH NO  
SIGNIFICANT WEATHER AND/OR S TO VISIBILITY
.  
 
MAZALL-250600-  
EASTERN MASSACHUSETTS  
 
CITY SKY/WX TMP DP RH WIND PRES REMARKS
 
BOSTON PTCLDY 74 54 49 W12 29.85R  
BEVERLY PTCLDY 71 55 56 W7 29.84R  
LAWRENCE CLEAR 73 56 54 SW9 29.86S  
BEDFORD CLEAR 66 53 63 W5 29.84S  
BLUE HILL N/A 68 52 56 W13 29.87S  
NORWOOD CLEAR 61 58 90 CALM 29.86R  
MARSHFIELD CLEAR 64 61 88 CALM 29.86R  
PLYMOUTH CLEAR 62 57 83 CALM 29.87R  
TAUNTON MOCLDY 59 57 93 CALM 29.86S  
NEW BEDFORD CLEAR 62 58 86 CALM 29.86S  

 
 
MAZALL-250600-  
CAPE COD AND THE ISLANDS  
 
CITY SKY/WX TMP DP RH WIND PRES REMARKS
 
FALMOUTH CLEAR 66 59 77 CALM 29.88S  
HYANNIS CLEAR 69 58 67 W6 29.86R  
CHATHAM CLEAR 69 57 65 W3 29.87R  
PROVINCETOWN CLEAR 67 56 67 W10 29.86R  
NANTUCKET N/A 67 60 78 W12 29.87R  
MARTHAS VNYRD CLEAR 68 58 70 W5 29.88R  

 
 
MAZALL-250600-  
CENTRAL AND WESTERN MASSACHUSETTS  
 
CITY SKY/WX TMP DP RH WIND PRES REMARKS
 
WORCESTER CLOUDY 67 52 58 W10 29.91R  
FITCHBURG CLOUDY 74 54 49 W10 29.87S  
ORANGE CLOUDY 69 56 62 W8 29.89S  
SPRINGFIELD CLOUDY 66 61 82 NE3 29.89R  
WESTFIELD CLOUDY 71 53 52 NW3 N/A  
NORTH ADAMS PTCLDY 61 55 81 CALM 29.92R  
PITTSFIELD PTCLDY 62 56 80 SW7 29.93R  

 
 
RIZALL-250600-  
RHODE ISLAND  
 
CITY SKY/WX TMP DP RH WIND PRES REMARKS
 
PROVIDENCE CLEAR 67 58 72 W6 29.87S  
NEWPORT CLEAR 67 59 75 CALM 29.87S  
BLOCK ISLAND CLEAR 69 58 67 SW9 29.89R  
WESTERLY CLEAR 67 62 84 CALM 29.88S  

 
 
CTZALL-250600-  
CONNECTICUT  
 
CITY SKY/WX TMP DP RH WIND PRES REMARKS
 
BRADLEY INTL CLOUDY 70 57 63 CALM 29.90S  
HARTFORD CLOUDY 71 59 65 CALM 29.90S  
BRIDGEPORT CLEAR 73 60 63 NW9 29.89R  
DANBURY MOCLDY 67 61 81 CALM 29.94S  
GROTON MOCLDY 69 60 73 NW6 29.88R  
NEW HAVEN NOT AVBL  
CHESTER FAIR 72 57 60 NW6G13 29.91S  
MERIDEN PTCLDY 70 58 65 NW6 29.91R  
WILLIMANTIC CLOUDY 69 60 73 N8 29.91R  
OXFORD PTCLDY 64 55 72 NW3 29.94R  

 
 
MEZ002-015-021-024-NHZ003-005-008-011-012-014-VTZ005-008-250600-  
NORTHERN NEW ENGLAND  
 
CITY SKY/WX TMP DP RH WIND PRES REMARKS
 
PORTLAND ME CLEAR 69 52 54 W7 29.79R  
BANGOR ME CLEAR 60 55 83 SW3 29.75S  
CONCORD NH PTCLDY 71 52 50 W9 29.84R  
MANCHESTER NH CLEAR 72 51 47 SW8 29.84R  
NASHUA NH CLOUDY 69 56 62 CALM 29.86R  
PORTSMOUTH NH PTCLDY 71 54 55 W6 29.81R  
JAFFREY NH CLOUDY 68 56 65 SW5 29.90R  
KEENE NH CLOUDY 63 59 87 S3 29.88S  
BURLINGTON VT PTCLDY 65 53 65 SW5 29.85S  
MT. WASHINGTON FOG 43 43 100 W48G56 N/A VSB 0 WCI 30  

 
 
NYZ052-076-250600-  
EASTERN NEW YORK  
 
CITY SKY/WX TMP DP RH WIND PRES REMARKS
 
ALBANY PTCLDY 65 54 67 W5 29.92R  
NEW YORK CITY PTCLDY 75 62 64 NW8 29.91R  

 
 
ANZALL-250600-  
MARINE OBSERVATIONS  
 
STATION/POSITION TIME TEMP WIND PRES VSBY WAVE
 
AIR SEA DIR/SP/G HT/PER  
(UTC) (F) (DEG/KT/KT) (MB) (MI) (FT/S)  
BOSTON BUOY 0350 65 56 250/ 10/ 10 1010.0 2/ 6  
BUZZARDS BAY 0400 68 250/ 13/ 13 1011.7R  
NANTUCKET SOUND 0450 66 1011.1R 1/ 8  
MASS BAY-STELLWA 0404 63 59 250/ 6/ 6 1009.4R 2/ 6  
ISLE OF SHOALS 0500 70 240/ 16/ 17 1009.6R  
S OF BLOCK IS 0455 62 N/A 6/ 9  

 
   
.....................KEY......................
 
 
SKY/WX - SKY CONDITION/PRESENT WEATHER  
TMP - TEMPERATURE IN FAHRENHEIT  
DWPT - DEWPOINT IN FAHRENHEIT  
RH - RELATIVE HUMIDITY IN PERCENT  
WIND - DIRECTION AND SPEED IN MPH  
PRES - MEAN SEA LEVEL PRESSURE IN INCHES OF HG  
WCI - WIND CHILL INDEX  
VSB - VISIBILITY IN MILES  
HX - HEAT INDEX  
TC - TEMPERATURE IN CELSIUS  
VRB - VARIABLE WIND DIRECTION  
N/A - NOT AVAILABLE  
 
 
CLICK HERE TO GO TO PREVIOUS BULLETINS.

The Nexlab MA Page
The Nexlab RI Page
The Nexlab NH Page
The Nexlab CT Page Main Text Page